2 36122 100.4555 346.8012 0007863 065.1810 295.0130 13.16282137 39933
UO-11
1 14781U 84021B 10287.70360708 -.00000145 00000-0 -12084-4 0 3642
2 14781 098.0401 339.7133 0008463 206.7133 153.3666 14.79842566429486
AO-16
1 20439U 90005D 10287.47231717 .00000035 00000-0 28695-4 0 175
2 20439 098.3474 240.7714 0010800 167.5332 192.6120 14.31877791 82454
LO-19
1 20442U 90005G 10287.80028525 .00000019 00000-0 22509-4 0 9277
2 20442 098.3105 246.4093 0012124 161.2847 198.8785 14.32107200 82676
AO-27
1 22825U 93061C 10286.39007986 -.00000104 00000-0 -24117-4 0 06518
2 22825 098.4984 231.3496 0007559 283.5591 076.4744 14.29310504888937
IO-26
1 22826U 93061D 10286.85427015 .00000018 00000-0 23745-4 0 03884
2 22826 098.4923 232.3606 0008031 276.3760 083.6509 14.29568848889115
GO-32
1 25397U 98043D 10286.70582071 -.00000054 00000-0 -58119-5 0 03070
2 25397 098.3170 287.6506 0000263 309.0398 051.0765 14.23186392636900
NO-44
1 26931U 01043C 10286.92644904 .00000222 00000-0 11884-3 0 05834
2 26931 067.0528 258.0437 0005532 271.3822 088.6657 14.29615936471727
SO-50
1 27607U 02058C 10286.66388876 .00000209 00000-0 54806-4 0 02920
2 27607 064.5601 356.6455 0043697 027.1614 333.1781 14.71587579419813
CO-55
1 27844U 03031E 10287.46779528 .00000092 00000-0 62813-4 0 9566
2 27844 098.7106 294.7407 0009561 182.8447 177.2683 14.20736764378020
CO-57
1 27848U 03031J 10287.51487855 .00000041 00000-0 39626-4 0 9037
2 27848 098.7155 293.9050 0009209 188.2322 171.8704 14.20526313377989
AO-51
1 28375U 04025K 10286.49443589 .00000037 00000-0 23411-4 0 07981
2 28375 098.0726 273.3218 0084771 097.7931 263.2894 14.40702817330541
GENESAT1
1 29655U 06058C 10216.61700559 .10637092 69904-5 33715-3 0 2265
2 29655 040.0059 067.3006 0005079 297.8744 064.7087 16.44862838207776
CP3
1 31129U 07012N 10286.58171256 .00000187 00000-0 53669-4 0 06983
2 31129 097.9293 319.7543 0101488 225.7945 133.4895 14.52315921185049
CO-65
1 32785U 08021C 10287.28989428 .00000637 00000-0 87373-4 0 8092
2 32785 097.8817 350.4873 0013802 257.7201 102.2459 14.81736445133121
KKS-1
1 33493U 09002B 10287.83523949 .00000734 00000-0 10122-3 0 9436
2 33493 098.0995 048.4463 0021116 112.9879 247.3576 14.81143110 93191
SOHLA-1
1 33496U 09002E 10287.72837639 .00000202 00000-0 42291-4 0 2291
2 33496 098.0660 035.3082 0006465 173.7989 186.3305 14.69523232 92433
TISAT-1
1 36799U 10035E 10287.77646415 .00000435 00000-0 64385-4 0 2165
2 36799 098.1357 348.2487 0015448 354.5383 005.5652 14.80193399 14003
STUDSAT
1 36801U 10035G 10286.79672968 .00001035 00000-0 14487-3 0 01020
2 36801 098.1365 347.1712 0013981 345.5616 014.5193 14.79706755013850
NOAA-10
1 16969U 86073A 10287.52663626 .00000129 00000-0 70484-4 0 2395
2 16969 098.6471 315.3225 0011606 221.1138 138.9181 14.27430473252602
NOAA-11
1 19531U 88089A 10287.32320956 -.00000179 00000-0 -70248-4 0 2481
2 19531 098.7662 014.3016 0011380 164.4403 195.7129 14.14937229137983
NOAA-12
1 21263U 91032A 10287.38176840 -.00000083 00000-0 -16050-4 0 7429
2 21263 098.7636 300.5230 0012463 176.8919 183.2351 14.25658626 9383
MET-3/5
1 21655U 91056A 10286.91950311 .00000051 00000-0 10000-3 0 09390
2 21655 082.5578 224.7362 0014875 055.4078 304.8396 13.17025245921304
MET-2/21
1 22782U 93055A 10287.53650754 -.00000010 00000-0 -23025-4 0 9108
2 22782 082.5484 157.7727 0023775 069.1070 291.2633 13.83649250864585
OKEAN-4
1 23317U 94066A 10287.76026685 .00000268 00000-0 30058-4 0 3652
2 23317 082.5398 242.2388 0021093 204.0155 156.0082 14.82874225864175
NOAA-14
1 23455U 94089A 10287.46228338 .00000033 00000-0 40747-4 0 2314
2 23455 098.8715 007.3301 0008548 257.6094 102.4130 14.13796988814359
NOAA-15
1 25338U 98030A 10287.46247027 -.00000110 00000-0 -28674-4 0 5587
2 25338 098.6322 272.3234 0011672 087.7071 272.5439 14.24858825645737
RESURS
1 25394U 98043A 10287.71056236 .00000001 00000-0 18086-4 0 6260
2 25394 098.3032 299.2745 0000593 188.0903 172.0269 14.24211926637368
FENGYUN1
1 25730U 99025A 10287.81118491 .00000828 00000-0 50856-3 0 1596
2 25730 098.7961 249.7056 0021145 290.7455 069.1462 14.08329243588529
OKEAN-0
1 25860U 99039A 10286.56150876 .00000081 00000-0 19799-4 0 01244
2 25860 097.8487 255.3372 0001941 074.4775 285.6657 14.73669969604337
NOAA-16
1 26536U 00055A 10287.43649241 -.00000201 00000-0 -83174-4 0 345
2 26536 099.1660 307.6938 0010569 007.4723 352.6593 14.12579250518660
NOAA-17
1 27453U 02032A 10287.50132799 .00000208 00000-0 10800-3 0 243
2 27453 098.4164 333.0568 0012279 144.7096 215.4899 14.24199446431689
NOAA-18
1 28654U 05018A 10287.54059422 .00000364 00000-0 22540-3 0 5140
2 28654 098.9634 233.5252 0015194 077.4451 282.8398 14.11399099278278
NOAA-19
1 33591U 09005A 10287.48370890 -.00000010 00000-0 18794-4 0 7108
2 33591 098.7994 227.1187 0013598 315.0690 044.9380 14.11091057 86738
HUBBLE
1 20580U 90037B 10286.13501496 .00000638 00000-0 35907-4 0 6598
2 20580 028.4688 189.8229 0003208 020.5896 339.4857 15.01059772922497
ISS
1 25544U 98067A 10287.98463575 .00011801 00000-0 92711-4 0 711
2 25544 051.6475 337.6888 0007989 094.5997 328.8197 15.71998344682318
CO-58
1 28895U 05043F 10287.71680889 .00000162 00000-0 43144-4 0 7042
2 28895 097.9939 168.1150 0016741 270.8452 089.0876 14.59945709264428
FALCON
1 30776U 07006E 10286.79395025 .00000997 00000-0 73969-4 0 9356
2 30776 035.4333 044.1032 0000184 023.5969 336.4755 15.03870214197929
MAST
1 31126U 07012K 10286.54938913 .00000146 00000-0 43541-4 0 09871
2 31126 097.9243 322.3689 0093518 217.7967 141.6664 14.53628644185259
CAPE1
1 31130U 07012P 10286.57729447 .00000211 00000-0 59401-4 0 00066
2 31130 097.9275 319.5774 0101658 226.2967 132.9774 14.52232930184849
COMPASS
1 32787U 08021E 10286.86955922 .00000629 00000-0 85827-4 0 8025
2 32787 097.8832 349.9195 0014572 259.2819 100.6786 14.81996090133070
AAUSAT2
1 32788U 08021F 10286.18579667 .00000258 00000-0 38980-4 0 07923
2 32788 097.8822 349.4011 0013980 264.1349 095.8269 14.82143977132986
DO-64
1 32789U 08021G 10286.65339321 .00000739 00000-0 98909-4 0 08110
2 32789 097.8891 350.4766 0014429 258.6460 101.3151 14.82353885133056
CO-66
1 32791U 08021J 10286.70688673 .00000452 00000-0 63924-4 0 7947
2 32791 097.8828 349.7578 0014946 258.3523 101.5964 14.81761531133001
RS-30
1 32953U 08025A 10287.57538513 .00000010 00000-0 00000 0 0 1309
2 32953 082.5020 315.4484 0018208 198.0788 161.9653 12.43008361108570
TACSAT-3
1 35001U 09028A 10287.89566404 .00008295 00000-0 18686-3 0 4067
2 35001 040.4535 214.4134 0020601 184.7983 175.2631 15.43092027 79127
PHARMSAT
1 35002U 09028B 10286.97231995 .00006891 00000-0 15394-3 0 03815
2 35002 040.4691 217.6172 0023817 181.5895 178.4889 15.43453753079001
HAWKSAT1
1 35003U 09028C 10286.92131691 .00016201 00000-0 30409-3 0 04151
2 35003 040.4564 208.6373 0022066 203.4124 156.5714 15.47926079079103
CP6
1 35004U 09028D 10286.83742501 .00020308 00000-0 36211-3 0 04093
2 35004 040.4578 207.0890 0021305 207.8393 152.1438 15.49297498079100
AEROCUB3
1 35005U 09028E 10287.73913098 .00107674 00000-0 11401-2 0 4821
2 35005 040.4661 190.2329 0024374 241.6618 118.2247 15.62790341 79379
CASTOR
1 35694U 09038F 10230.44082147 .07179566 12689-4 99310-4 0 6559
2 35694 051.5930 222.0149 0004218 308.0851 053.0105 16.48877011 61107
METEOR-M
1 35865U 09049A 10287.69567073 .00000176 00000-0 10000-3 0 7413
2 35865 098.7436 340.5536 0003062 032.6187 327.5158 14.21831861 55703
RS-38
1 35869U 09049E 10287.72444622 .00000177 00000-0 10000-3 0 7540
2 35869 098.7436 340.6222 0005312 027.4668 332.6765 14.21990683 55716
/EX
1
0
SB KEPS @ AMSAT $ORB10287.O
Orbital Elements 10287.OSCAR
HR AMSAT ORBITAL ELEMENTS FOR OSCAR SATELLITES
FROM WA5QGD FORT WORTH,TX October 14, 2010
BID: ORB10287.O
TO ALL RADIO AMATEURS BT
Satellite: AO-07
Catalog number: 07530
Epoch time: 10286.55530713
Element set: 901
Inclination: 101.3999 deg
RA of node: 297.8228 deg
Eccentricity: 0.0012211
Arg of perigee: 042.0549 deg
Mean anomaly: 318.1460 deg
Mean motion: 12.53579950 rev/day
Decay rate: -2.7e-07 rev/day^2
Epoch rev: 64328
Checksum: 292
Satellite: FO-29
Catalog number: 24278
Epoch time: 10287.68459766
Element set: 416
Inclination: 098.5161 deg
RA of node: 100.3244 deg
Eccentricity: 0.0350687
Arg of perigee: 173.7322 deg
Mean anomaly: 186.8382 deg
Mean motion: 13.52953585 rev/day
Decay rate: -3.4e-07 rev/day^2
Epoch rev: 69926
Checksum: 345
Satellite: SO-33
Catalog number: 25509
Epoch time: 10286.79765595
Element set: 813
Inclination: 031.4337 deg
RA of node: 197.7733 deg
Eccentricity: 0.0354791
Arg of perigee: 247.0163 deg
Mean anomaly: 109.2697 deg
Mean motion: 14.28330746 rev/day
Decay rate: 4.2e-07 rev/day^2
Epoch rev: 62502
Checksum: 323
Satellite: RS-22
Catalog number: 27939
Epoch time: 10287.63996136
Element set: 632
Inclination: 097.8728 deg
RA of node: 147.9459 deg
Eccentricity: 0.0014519
Arg of perigee: 045.0533 deg
Mean anomaly: 315.1852 deg
Mean motion: 14.63462222 rev/day
Decay rate: 1.30e-06 rev/day^2
Epoch rev: 37642
Checksum: 319
Satellite: VO-52
Catalog number: 28650
Epoch time: 10285.29329997
Element set: 0620
Inclination: 097.6779 deg
RA of node: 334.0756 deg
Eccentricity: 0.0025807
Arg of perigee: 253.5434 deg
Mean anomaly: 106.2946 deg
Mean motion: 14.81821383 rev/day
Decay rate: -7.0e-08 rev/day^2
Epoch rev: 29403
Checksum: 328
Satellite: SO-67
Catalog number: 35870
Epoch time: 10287.85349817
Element set: 194
Inclination: 097.3175 deg
RA of node: 333.7380 deg
Eccentricity: 0.0004337
Arg of perigee: 055.8857 deg
Mean anomaly: 053.2199 deg
Mean motion: 15.21107435 rev/day
Decay rate: 1.087e-05 rev/day^2
Epoch rev: 5964
Checksum: 334
Satellite: HO-68
Catalog number: 36122
Epoch time: 10287.65690675
Element set: 754
Inclination: 100.4555 deg
RA of node: 346.8012 deg
Eccentricity: 0.0007863
Arg of perigee: 065.1810 deg
Mean anomaly: 295.0130 deg
Mean motion: 13.16282137 rev/day
Decay rate: -4.5e-07 rev/day^2
Epoch rev: 3993
Checksum: 294
/EX
SB KEPS @ AMSAT $ORB10287.D
Orbital Elements 10287.MICROS
HR AMSAT ORBITAL ELEMENTS FOR THE MICROSATS
FROM WA5QGD FORT WORTH,TX October 14, 2010
BID: ORB10287.D
TO ALL RADIO AMATEURS BT
Satellite: UO-11
